Terminal Aerodrome Forecast
Issued by NWS Atlanta, GA

Home | Current Version | Previous Version | Text Only | Print | Product List | Glossary On
Versions: 1 2 3 4 5 6 7 8 9 10 11 12 13 14 15 16 17 18 19 20 21 22 23 24 25 26 27 28 29 30 31 32 33 34 35
000
FTUS42 KFFC 300958 AAC
TAFAHN
TAF AMD
KAHN 300958Z 3010/3106 32004KT P6SM BKN020
      TEMPO 3010/3013 1/2SM FG BKN002
     FM301600 27008KT P6SM BKN035
     FM301800 27009KT P6SM BKN040 PROB30 3019/3023 4SM -TSRA
      BKN020CB
     FM310000 29006KT P6SM VCTS SCT040CB BKN150
     FM310300 28004KT P6SM SCT150=

USA.gov is the U.S. government's official web portal to all federal, state and local government web resources and services.